| time (UTC) | temp C | wind direction | speed KPH | gust KPH | rain 1hr cm | rain 24hr cm | rain mn cm | humidity % | barometer mb |
| 20260507100019 | 20 | 198 | 4.8 | 9.7 | 0.00 | 0.00 | 0.00 | 57 | 1011.0 |
| 20260507094513 | 20 | 210 | 3.2 | 9.7 | 0.00 | 0.00 | 0.00 | 60 | 1011.0 |
| 20260507091513 | 19 | 204 | 3.2 | 9.7 | 0.00 | 0.00 | 0.00 | 67 | 1012.0 |
| 20260507090020 | 18 | 228 | 3.2 | 9.7 | 0.00 | 0.00 | 0.00 | 67 | 1012.0 |
| 20260507084513 | 18 | 223 | 1.6 | 6.4 | 0.00 | 0.00 | 0.00 | 71 | 1012.0 |
| 20260507083019 | 17 | 225 | 0.0 | 3.2 | 0.00 | 0.00 | 0.00 | 70 | 1011.0 |
| 20260507081513 | 17 | 235 | 1.6 | 4.8 | 0.00 | 0.00 | 0.00 | 73 | 1012.0 |
| 20260507074513 | 16 | 259 | 0.0 | 3.2 | 0.00 | 0.00 | 0.00 | 75 | 1012.0 |
| 20260507071513 | 16 | 270 | 0.0 | 3.2 | 0.00 | 0.00 | 0.00 | 77 | 1011.0 |
| 20260507070020 | 15 | 0 | 0.0 | 0.0 | 0.00 | 0.00 | 0.00 | 81 | 1011.0 |
| 20260507064513 | 14 | 0 | 0.0 | 3.2 | 0.00 | 0.00 | 0.00 | 85 | 1011.0 |
| 20260507063021 | 13 | 0 | 0.0 | 0.0 | 0.00 | 0.00 | 0.00 | 86 | 1011.0 |
| 20260507061513 | 13 | 270 | 0.0 | 3.2 | 0.00 | 0.00 | 0.00 | 87 | 1011.0 |
| 20260507060019 | 13 | 0 | 0.0 | 0.0 | 0.00 | 0.00 | 0.00 | 87 | 1011.0 |
| 20260507054513 | 12 | 0 | 0.0 | 0.0 | 0.00 | 0.00 | 0.00 | 88 | 1011.0 |
| 20260507053020 | 12 | 0 | 0.0 | 0.0 | 0.00 | 0.00 | 0.00 | 88 | 1011.0 |
| 20260507051513 | 12 | 0 | 0.0 | 0.0 | 0.00 | 0.00 | 0.00 | 88 | 1011.0 |
| 20260507050021 | 12 | 0 | 0.0 | 0.0 | 0.00 | 0.00 | 0.00 | 89 | 1011.0 |
| 20260507044513 | 12 | 270 | 0.0 | 3.2 | 0.00 | 0.00 | 0.00 | 88 | 1010.0 |
| 20260507043019 | 12 | 0 | 0.0 | 3.2 | 0.00 | 0.00 | 0.00 | 86 | 1010.0 |
| 20260507041513 | 12 | 0 | 0.0 | 0.0 | 0.00 | 0.00 | 0.00 | 87 | 1010.0 |
| 20260507040021 | 13 | 270 | 0.0 | 3.2 | 0.00 | 0.00 | 0.00 | 85 | 1010.0 |
| 20260507034512 | 13 | 0 | 1.6 | 3.2 | 0.00 | 0.00 | 0.00 | 83 | 1010.0 |
| 20260507033020 | 14 | 270 | 0.0 | 3.2 | 0.00 | 0.00 | 0.00 | 80 | 1009.0 |
| 20260507031513 | 15 | 170 | 3.2 | 11.3 | 0.00 | 0.00 | 0.00 | 79 | 1009.0 |
| 20260507030020 | 15 | 185 | 3.2 | 12.9 | 0.00 | 0.00 | 0.00 | 77 | 1009.0 |
| 20260507024513 | 15 | 180 | 1.6 | 4.8 | 0.00 | 0.00 | 0.00 | 76 | 1009.0 |
| 20260507021513 | 15 | 185 | 4.8 | 16.1 | 0.00 | 0.00 | 0.00 | 74 | 1010.0 |
| 20260507020019 | 15 | 188 | 4.8 | 11.3 | 0.00 | 0.00 | 0.00 | 75 | 1010.0 |
| 20260507014513 | 15 | 191 | 3.2 | 8.0 | 0.00 | 0.00 | 0.00 | 75 | 1009.0 |
| 20260507013019 | 15 | 180 | 3.2 | 6.4 | 0.00 | 0.00 | 0.00 | 77 | 1009.0 |
| 20260507011513 | 15 | 223 | 1.6 | 6.4 | 0.00 | 0.00 | 0.00 | 76 | 1009.0 |
| 20260507010019 | 15 | 194 | 6.4 | 12.9 | 0.00 | 0.00 | 0.00 | 75 | 1009.0 |
| 20260507004513 | 15 | 160 | 1.6 | 6.4 | 0.00 | 0.00 | 0.00 | 76 | 1009.0 |
| 20260507001513 | 15 | 175 | 3.2 | 6.4 | 0.00 | 0.00 | 0.00 | 78 | 1009.0 |
| 20260507000018 | 15 | 240 | 0.0 | 3.2 | 0.00 | 0.00 | 0.00 | 78 | 1009.0 |
| 20260506234513 | 15 | 180 | 1.6 | 4.8 | 0.00 | 0.00 | 0.00 | 78 | 1009.0 |
| 20260506233022 | 15 | 180 | 3.2 | 9.7 | 0.00 | 0.00 | 0.00 | 76 | 1009.0 |
| 20260506231513 | 15 | 180 | 0.0 | 3.2 | 0.00 | 0.00 | 0.00 | 78 | 1009.0 |
| 20260506230021 | 16 | 0 | 0.0 | 3.2 | 0.00 | 0.00 | 0.00 | 77 | 1009.0 |
| 20260506224513 | 16 | 193 | 1.6 | 6.4 | 0.00 | 0.00 | 0.00 | 75 | 1009.0 |
| 20260506223021 | 16 | 180 | 1.6 | 9.7 | 0.00 | 0.00 | 0.00 | 75 | 1009.0 |
| 20260506221513 | 16 | 201 | 3.2 | 8.0 | 0.00 | 0.00 | 0.00 | 76 | 1009.0 |
| 20260506220025 | 16 | 180 | 0.0 | 6.4 | 0.00 | 0.00 | 0.00 | 76 | 1009.0 |
| 20260506214513 | 15 | 180 | 1.6 | 8.0 | 0.00 | 0.00 | 0.00 | 77 | 1009.0 |
| 20260506213021 | 15 | 152 | 1.6 | 11.3 | 0.00 | 0.00 | 0.00 | 77 | 1009.0 |
| 20260506211513 | 16 | 130 | 1.6 | 3.2 | 0.00 | 0.00 | 0.00 | 77 | 1009.0 |
| 20260506210020 | 16 | 166 | 1.6 | 11.3 | 0.00 | 0.00 | 0.00 | 76 | 1009.0 |
| 20260506204513 | 15 | 180 | 4.8 | 9.7 | 0.00 | 0.00 | 0.00 | 75 | 1009.0 |
| 20260506201513 | 16 | 215 | 1.6 | 6.4 | 0.00 | 0.00 | 0.00 | 72 | 1009.0 |
| 20260506200019 | 16 | 214 | 4.8 | 11.3 | 0.00 | 0.00 | 0.00 | 70 | 1009.0 |
| 20260506194513 | 16 | 206 | 3.2 | 14.5 | 0.00 | 0.00 | 0.00 | 71 | 1009.0 |
| 20260506193020 | 16 | 203 | 1.6 | 8.0 | 0.00 | 0.00 | 0.00 | 73 | 1008.0 |
| 20260506191513 | 16 | 183 | 3.2 | 11.3 | 0.00 | 0.00 | 0.00 | 71 | 1008.0 |
| 20260506190021 | 17 | 195 | 3.2 | 12.9 | 0.00 | 0.00 | 0.00 | 71 | 1008.0 |
| 20260506184513 | 17 | 191 | 6.4 | 19.3 | 0.00 | 0.00 | 0.00 | 70 | 1008.0 |
| 20260506183021 | 17 | 212 | 8.0 | 17.7 | 0.00 | 0.00 | 0.00 | 69 | 1008.0 |
| 20260506181513 | 17 | 180 | 6.4 | 9.7 | 0.00 | 0.00 | 0.00 | 69 | 1007.0 |
| 20260506180021 | 17 | 149 | 9.7 | 19.3 | 0.00 | 0.00 | 0.00 | 69 | 1007.0 |
| 20260506174513 | 17 | 170 | 8.0 | 27.4 | 0.00 | 0.00 | 0.00 | 69 | 1007.0 |
| 20260506173019 | 18 | 186 | 14.5 | 27.4 | 0.00 | 0.00 | 0.00 | 68 | 1007.0 |
| 20260506171513 | 18 | 181 | 11.3 | 25.7 | 0.00 | 0.00 | 0.00 | 68 | 1007.0 |
| 20260506170019 | 18 | 178 | 9.7 | 27.4 | 0.00 | 0.00 | 0.00 | 66 | 1007.0 |
| 20260506164513 | 19 | 199 | 4.8 | 17.7 | 0.00 | 0.00 | 0.00 | 66 | 1007.0 |
| 20260506161513 | 18 | 218 | 14.5 | 29.0 | 0.00 | 0.00 | 0.00 | 66 | 1007.0 |
| 20260506154513 | 19 | 234 | 11.3 | 25.7 | 0.00 | 0.00 | 0.00 | 64 | 1007.0 |
| 20260506151513 | 20 | 216 | 17.7 | 37.0 | 0.00 | 0.00 | 0.00 | 63 | 1007.0 |
| 20260506150020 | 20 | 164 | 17.7 | 43.5 | 0.00 | 0.00 | 0.00 | 61 | 1007.0 |
| 20260506144513 | 21 | 214 | 12.9 | 30.6 | 0.00 | 0.00 | 0.00 | 59 | 1007.0 |
| 20260506141514 | 20 | 142 | 12.9 | 29.0 | 0.00 | 0.00 | 0.00 | 60 | 1007.0 |
| 20260506140020 | 21 | 180 | 16.1 | 30.6 | 0.00 | 0.00 | 0.00 | 58 | 1007.0 |
| 20260506134513 | 21 | 151 | 11.3 | 32.2 | 0.00 | 0.00 | 0.00 | 56 | 1007.0 |
| 20260506133020 | 21 | 187 | 14.5 | 29.0 | 0.00 | 0.00 | 0.00 | 57 | 1007.0 |
| 20260506131513 | 22 | 188 | 16.1 | 35.4 | 0.00 | 0.00 | 0.00 | 54 | 1007.0 |
| 20260506130020 | 22 | 177 | 14.5 | 37.0 | 0.00 | 0.00 | 0.00 | 54 | 1007.0 |
| 20260506124513 | 22 | 180 | 14.5 | 27.4 | 0.00 | 0.00 | 0.00 | 54 | 1007.0 |
| 20260506123021 | 22 | 233 | 11.3 | 35.4 | 0.00 | 0.00 | 0.00 | 53 | 1007.0 |
| 20260506121513 | 21 | 177 | 14.5 | 40.2 | 0.00 | 0.00 | 0.00 | 54 | 1008.0 |
| 20260506120018 | 21 | 196 | 14.5 | 27.4 | 0.00 | 0.00 | 0.00 | 56 | 1008.0 |
| 20260506114513 | 21 | 188 | 8.0 | 22.5 | 0.00 | 0.00 | 0.00 | 57 | 1008.0 |
| 20260506111513 | 20 | 220 | 9.7 | 24.1 | 0.00 | 0.00 | 0.00 | 59 | 1008.0 |
| 20260506110021 | 20 | 202 | 11.3 | 32.2 | 0.00 | 0.00 | 0.00 | 60 | 1008.0 |
| 20260506104513 | 19 | 202 | 6.4 | 19.3 | 0.00 | 0.00 | 0.00 | 62 | 1009.0 |
| 20260506103021 | 20 | 201 | 11.3 | 32.2 | 0.00 | 0.00 | 0.00 | 61 | 1009.0 |
| 20260506101513 | 21 | 188 | 12.9 | 25.7 | 0.00 | 0.00 | 0.00 | 58 | 1009.0 |